Location: Olsztyn
(53.7767°N, 20.4765°E)
Time: 04:31:02
(UTC+01:00)

A-11 Canister half - All Passes

Search period start: 23 January 2022 00:00
Search period end: 02 February 2022 00:00
Orbit: 1516 x 1684 km, 47.2° (Epoch: 22 January)

Date Brightness Start Highest point End Pass type
(mag) Time Alt. Az. Time Alt. Az. Time Alt. Az.
23 Jan - 15:04:05 10° SSE 15:08:42 15° SE 15:13:16 10° E daylight
23 Jan - 17:03:02 10° SSW 17:11:26 38° SSE 17:19:42 10° E visible
23 Jan - 19:06:08 10° WSW 19:15:11 58° S 19:24:09 10° E visible
23 Jan - 21:10:22 10° W 21:19:13 52° SSW 21:28:03 10° SE visible
23 Jan - 23:15:13 10° W 23:22:35 28° SW 23:30:00 10° SSE visible
24 Jan - 14:41:48 10° SSE 14:45:56 14° SE 14:50:02 10° E daylight
24 Jan - 16:40:16 10° SSW 16:48:36 37° SSE 16:56:48 10° E visible
24 Jan - 18:43:15 10° WSW 18:52:19 57° S 19:01:17 10° E visible
24 Jan - 20:47:28 10° W 20:56:22 53° SSW 21:05:13 10° ESE visible
24 Jan - 22:52:16 10° W 22:59:47 29° SW 23:07:20 10° SSE visible
25 Jan - 14:19:37 10° SSE 14:23:11 13° SE 14:26:42 10° ESE daylight
25 Jan - 16:17:31 10° SSW 16:25:47 36° SSE 16:33:53 10° E daylight
25 Jan - 18:20:23 10° WSW 18:29:28 57° S 18:38:25 10° E visible
25 Jan - 20:24:35 10° W 20:33:30 54° SSW 20:42:23 10° ESE visible
25 Jan - 22:29:20 10° W 22:36:59 30° SW 22:44:39 10° SSE visible
26 Jan - 13:57:37 10° SE 14:00:25 12° SE 14:03:13 10° ESE daylight
26 Jan - 15:54:46 10° SSW 16:02:58 34° SE 16:10:59 10° E daylight
26 Jan - 17:57:31 10° WSW 18:06:36 56° S 18:15:32 10° E visible
26 Jan - 20:01:41 10° W 20:10:39 55° SSW 20:19:33 10° ESE visible
26 Jan - 22:06:23 10° W 22:14:10 32° SW 22:21:58 10° SSE visible
27 Jan - 13:35:56 10° SE 13:37:40 11° SE 13:39:23 10° ESE daylight
27 Jan - 15:32:02 10° SSW 15:40:09 33° SE 15:48:04 10° E daylight
27 Jan - 17:34:39 10° WSW 17:43:44 55° SSE 17:52:40 10° E visible
27 Jan - 19:38:47 10° W 19:47:48 55° SSW 19:56:42 10° ESE visible
27 Jan - 21:43:27 10° W 21:51:22 33° SW 21:59:16 10° SSE visible
27 Jan - 23:52:08 10° WSW 23:53:47 11° SW 23:55:27 10° SW visible
28 Jan - 15:09:19 10° SSW 15:17:19 32° SE 15:25:09 10° E daylight
28 Jan - 17:11:46 10° WSW 17:20:53 54° SSE 17:29:47 10° E visible
28 Jan - 19:15:54 10° W 19:24:56 56° S 19:33:52 10° ESE visible
28 Jan - 21:20:32 10° W 21:28:33 34° SW 21:36:34 10° SSE visible
28 Jan - 23:28:16 10° WSW 23:31:02 12° SW 23:33:49 10° SW visible
29 Jan - 14:46:36 10° SSW 14:54:30 30° SE 15:02:13 10° E daylight
29 Jan - 16:48:55 10° WSW 16:58:01 54° SSE 17:06:55 10° E visible
29 Jan - 18:52:59 10° W 19:02:04 57° S 19:11:01 10° ESE visible
29 Jan - 20:57:36 10° W 21:05:44 36° SSW 21:13:50 10° SSE visible
29 Jan - 23:04:46 10° WSW 23:08:18 13° SW 23:11:49 10° SSW visible
30 Jan - 14:23:54 10° SSW 14:31:42 29° SE 14:39:18 10° E daylight
30 Jan - 16:26:03 10° WSW 16:35:09 53° SSE 16:44:02 10° E daylight
30 Jan - 18:30:06 10° W 18:39:13 58° S 18:48:10 10° ESE visible
30 Jan - 20:34:40 10° W 20:42:55 37° SSW 20:51:06 10° SSE visible
30 Jan - 22:41:26 10° W 22:45:32 14° SW 22:49:39 10° SSW visible
31 Jan - 14:01:13 10° SSW 14:08:52 28° SE 14:16:21 10° E daylight
31 Jan - 16:03:12 10° SW 16:12:17 52° SSE 16:21:10 10° E daylight
31 Jan - 18:07:11 10° W 18:16:21 58° S 18:25:19 10° ESE visible
31 Jan - 20:11:45 10° W 20:20:06 39° SSW 20:28:22 10° SSE visible
31 Jan - 22:18:11 10° W 22:22:47 15° SW 22:27:23 10° SSW visible
01 Feb - 13:38:33 10° S 13:46:04 27° SE 13:53:24 10° E daylight
01 Feb - 15:40:20 10° SW 15:49:26 51° SSE 15:58:17 10° E daylight
01 Feb - 17:44:17 10° W 17:53:28 59° S 18:02:28 10° ESE visible
01 Feb - 19:48:49 10° W 19:57:16 40° SSW 20:05:37 10° SE visible
01 Feb - 21:55:00 10° W 22:00:01 16° SW 22:05:03 10° SSW visible
